Regional Weather Roundup
Issued by NWS

Home | Current Version | Previous Version | Graphics & Text | Print | Product List | Glossary On
Versions: 1 2 3 4 5 6 7 8 9 10 11 12 13 14 15 16 17 18 19 20 21 22 23 24 25 26 27 28 29 30 31 32 33 34 35 36 37 38 39 40 41 42 43 44 45 46 47 48 49 50
000
ASUS43 KOAX 231810
RWRNE

WEATHER ROUNDUP FOR NEBRASKA
NATIONAL WEATHER SERVICE OMAHA NE
100 PM CDT SAT JUL 23 2016

NOTES: SATELLITE DATA IS BEING USED TO AUGMENT CLOUD COVER ABOVE
       12000 FEET.
       "FAIR" INDICATES FEW OR NO CLOUDS BELOW 12,000 FEET WITH NO
       SIGNIFICANT WEATHER AND/OR OBSTRUCTIONS TO VISIBILITY.

  * THESE STATIONS DO NOT REPORT WEATHER SUCH AS RAIN...SNOW OR FOG.

NEZ001>004-019>022-054>056-231900-
NEBRASKA PANHANDLE

CITY           SKY/WX    TMP DP  RH WIND       PRES   REMARKS
SCOTTSBLUFF    SUNNY     91  49  23 NW14      30.00S
6HR MIN TEMP:  62; 6HR MAX TEMP:  91;

ALLIANCE       SUNNY     89  52  28 N15       29.98R
6HR MIN TEMP:  62; 6HR MAX TEMP:  89;

CHADRON        SUNNY     90  53  28 NW14G23   29.93S
6HR MIN TEMP:  64; 6HR MAX TEMP:  90;

KIMBALL        SUNNY     90  51  26 N10G21    30.07S
SIDNEY         SUNNY     95  49  20 N10       30.03R HX  92
6HR MIN TEMP:  70; 6HR MAX TEMP:  95;

$$

NEZ057>060-069>072-079>082-231900-
SOUTHWEST NEBRASKA

CITY           SKY/WX    TMP DP  RH WIND       PRES   REMARKS
NORTH PLATTE   CLOUDY    85  70  60 W12       29.89F
6HR MIN TEMP:  67; 6HR MAX TEMP:  87;

IMPERIAL       SUNNY     86  67  52 W7        29.94S
6HR MIN TEMP:  71; 6HR MAX TEMP:  86;

LEXINGTON      SUNNY     87  68  53 W9        29.88R HX  91
MCCOOK         SUNNY     87  69  54 NW9       29.89S HX  91
6HR MIN TEMP:  75; 6HR MAX TEMP:  89; 6HR PCP: TRACE;

OGALLALA       SUNNY     89  66  46 SW6       29.93F HX  91
$$

NEZ005>010-023>029-035>040-094-231900-
NORTH CENTRAL NEBRASKA

CITY           SKY/WX    TMP DP  RH WIND       PRES   REMARKS
VALENTINE      SUNNY     92  64  39 NW13      29.81F HX  93
6HR MIN TEMP:  69; 6HR MAX TEMP:  92;

AINSWORTH      SUNNY     92  66  42 W16       29.81F HX  95
BROKEN BOW     SUNNY     85  70  60 SW13      29.87F
6HR MIN TEMP:  67; 6HR MAX TEMP:  86;

O`NEILL        SUNNY     91  64  40 SW16      29.81S HX  93
ORD            SUNNY     87  71  58 SW10      29.83F HX  93
6HR MIN TEMP:  71; 6HR MAX TEMP:  87;

THEDFORD       SUNNY     92  65  40 W14G21    29.87F HX  94
$$

NEZ041-046>049-061>064-073>077-083>087-231900-
SOUTH CENTRAL NEBRASKA

CITY           SKY/WX    TMP DP  RH WIND       PRES   REMARKS
GRAND ISLAND   SUNNY     91  68  46 SW20      29.85F HX  95
6HR MIN TEMP:  72; 6HR MAX TEMP:  91;

AURORA         CLOUDY    86  70  57 SW14      29.85R HX  90
HASTINGS       MOSUNNY   84  69  60 S9        29.87S
6HR MIN TEMP:  73; 6HR MAX TEMP:  85; 6HR PCP: TRACE;

HEBRON         CLOUDY    85  71  61 S8        29.85F HX  90
HOLDREGE       CLOUDY    86  70  58 SW5       29.87F HX  91
KEARNEY *      SUNNY     88  72  58 S12       29.87S HX  94
YORK           CLOUDY    88  72  58 SW13      29.84S HX  94
$$

NEZ011>018-030>034-042>045-231900-
NORTHEAST NEBRASKA

CITY           SKY/WX    TMP DP  RH WIND       PRES   REMARKS
NORFOLK        SUNNY     88  73  61 SW8       29.81F HX  95
6HR MIN TEMP:  73; 6HR MAX TEMP:  89; 6HR PCP: TRACE;

ALBION         SUNNY     87  72  60 SW9       29.83F HX  93
BLAIR          CLOUDY    84  74  70 S9        29.84S HX  91
FREMONT        PTSUNNY   84  73  68 SE7       29.83S HX  90
TEKAMAH        CLOUDY    85  75  72 S9        29.83R HX  93
6HR MIN TEMP:  78; 6HR MAX TEMP:  85; 6HR PCP:  0.01;

WAYNE          MOSUNNY   88  77  69 SW12      29.81F HX 100
$$

NEZ050>053-065>068-078-088>093-231900-
SOUTHEAST NEBRASKA

CITY           SKY/WX    TMP DP  RH WIND       PRES   REMARKS
LINCOLN        CLOUDY    89  73  59 S15       29.82F HX  97
6HR MIN TEMP:  79; 6HR MAX TEMP:  89;

OMAHA EPPLEY   CLOUDY    85  74  69 S8        29.83S HX  92
6HR MIN TEMP:  82; 6HR MAX TEMP:  85; 6HR PCP: TRACE;

BEATRICE       CLOUDY    91  70  51 S15       29.85S HX  96
FALLS CITY     CLOUDY    89  75  63 S13G20    29.85F HX  99
6HR MIN TEMP:  80; 6HR MAX TEMP:  90; 6HR PCP: TRACE;

NEBRASKA CITY  CLOUDY    84  74  72 S12       29.85R HX  91
PLATTSMOUTH    CLOUDY    87  74  66 S9        29.84S HX  95
$$

NEZ044-045-051>053-067-231900-
OMAHA AREA

CITY           SKY/WX    TMP DP  RH WIND       PRES   REMARKS
OMAHA EPPLEY   CLOUDY    85  74  69 S8        29.83S HX  92
6HR MIN TEMP:  82; 6HR MAX TEMP:  85; 6HR PCP: TRACE;

BLAIR          CLOUDY    84  74  70 S9        29.84S HX  91
FREMONT        PTSUNNY   84  73  68 SE7       29.83S HX  90
MILLARD        CLOUDY    86  73  64 S9        29.83F HX  93
OFFUTT AFB     CLOUDY    86  74  65 S10       29.83F HX  94
PLATTSMOUTH    CLOUDY    87  74  66 S9        29.84S HX  95
WAHOO          FAIR      87  74  63 S9        29.83R HX  95
$$




USA.gov is the U.S. government's official web portal to all federal, state and local government web resources and services.